GW3175 Weather Reports


time (UTC)temp
F
wind
direction
speed
knots
gust
knots
rain 1hr
in
rain 24hr
in
rain mn
in
humidity
%
barometer
mb
20260505011347 48 87 0.0 1.7 0.00 0.01 0.01 90 1005.4
20260505010843 48 28 1.7 2.6 0.00 0.01 0.01 90 1005.4
20260505010339 48 44 0.9 2.6 0.00 0.01 0.01 89 1005.2
20260505005836 48 114 0.9 2.6 0.00 0.01 0.01 89 1005.1
20260505005333 49 64 1.7 1.7 0.00 0.01 0.01 89 1005.2
20260505004830 49 60 1.7 2.6 0.00 0.01 0.01 89 1005.1
20260505004326 49 116 0.9 2.6 0.00 0.01 0.01 88 1005.0
20260505003824 50 304 0.0 2.6 0.00 0.01 0.01 87 1004.9
20260505003321 50 89 0.0 2.6 0.00 0.01 0.01 85 1004.9
20260505002817 50 62 0.9 2.6 0.00 0.01 0.01 85 1004.8
20260505002314 51 45 0.9 1.7 0.00 0.01 0.01 84 1004.6
20260505001812 52 41 0.0 3.5 0.00 0.01 0.01 81 1004.8
20260505001309 52 94 1.7 3.5 0.00 0.01 0.01 81 1004.8
20260505000806 53 145 2.6 4.3 0.00 0.01 0.01 79 1004.5
20260505000304 52 133 1.7 3.5 0.00 0.01 0.01 80 1004.6
20260504235800 53 78 2.6 3.5 0.00 0.01 0.01 79 1004.6
20260504235257 53 136 2.6 2.6 0.00 0.01 0.01 79 1004.5
20260504234754 54 135 1.7 4.3 0.00 0.01 0.01 75 1004.4
20260504234252 54 132 1.7 4.3 0.00 0.01 0.01 75 1004.2
20260504233748 54 164 3.5 4.3 0.00 0.01 0.01 76 1004.3
20260504233243 55 163 2.6 4.3 0.00 0.01 0.01 75 1004.2
20260504232740 56 134 2.6 3.5 0.00 0.01 0.01 72 1004.2
20260504232237 57 157 2.6 4.3 0.00 0.01 0.01 71 1004.0
20260504231735 57 159 2.6 3.5 0.00 0.01 0.01 73 1004.2
20260504231231 58 154 2.6 3.5 0.00 0.01 0.01 70 1003.9
20260504230727 60 121 1.7 2.6 0.00 0.01 0.01 59 1004.0
20260504230226 61 142 1.7 2.6 0.00 0.01 0.01 59 1003.8
20260504225724 61 137 0.9 1.7 0.00 0.01 0.01 57 1003.7
20260504225220 61 147 0.9 2.6 0.00 0.01 0.01 56 1003.7
20260504224717 62 128 0.0 1.7 0.00 0.01 0.01 55 1003.6
20260504224214 62 82 0.0 1.7 0.00 0.01 0.01 55 1003.7
20260504223710 61 177 1.7 2.6 0.00 0.01 0.01 54 1003.6
20260504223206 62 128 0.9 3.5 0.00 0.01 0.01 54 1003.6
20260504222703 62 345 0.0 4.3 0.00 0.01 0.01 56 1003.6
20260504222200 62 120 0.0 2.6 0.00 0.01 0.01 55 1003.7
20260504221657 62 321 0.9 1.7 0.00 0.01 0.01 55 1003.6
20260504221155 62 345 1.7 4.3 0.00 0.01 0.01 55 1003.6
20260504220651 62 207 1.7 3.5 0.00 0.01 0.01 53 1003.5
20260504220149 62 149 3.5 6.1 0.00 0.01 0.01 53 1003.6
20260504215645 62 96 0.0 12.2 0.00 0.01 0.01 55 1003.8
20260504215142 62 349 5.2 6.1 0.00 0.01 0.01 54 1003.7
20260504214638 62 46 3.5 7.8 0.00 0.01 0.01 54 1003.6
20260504214134 62 277 1.7 7.8 0.00 0.01 0.01 53 1003.6
20260504213631 63 232 3.5 7.8 0.00 0.01 0.01 54 1003.6
20260504213128 62 14 3.5 7.8 0.00 0.01 0.01 53 1003.5
20260504212624 62 9 1.7 5.2 0.00 0.01 0.01 55 1003.5
20260504212121 62 5 7.0 7.0 0.00 0.01 0.01 54 1003.6
20260504211619 62 127 0.0 6.1 0.00 0.01 0.01 58 1003.6
20260504211115 63 31 3.5 6.1 0.00 0.01 0.01 56 1003.4
20260504210613 65 354 6.1 7.0 0.00 0.01 0.01 54 1003.2
20260504210109 63 176 3.5 5.2 0.00 0.01 0.01 57 1003.3
20260504205607 62 111 0.0 4.3 0.00 0.01 0.01 57 1003.5
20260504205104 62 161 1.7 4.3 0.00 0.01 0.01 58 1003.3
20260504204602 63 152 2.6 7.8 0.00 0.01 0.01 56 1003.4
20260504204101 64 191 2.6 7.0 0.00 0.01 0.01 55 1003.2
20260504203559 64 262 1.7 4.3 0.00 0.01 0.01 56 1003.2
20260504203056 64 190 3.5 9.6 0.00 0.01 0.01 56 1003.2
20260504202551 64 350 3.5 6.1 0.00 0.01 0.01 60 1003.1
20260504202048 63 150 2.6 6.1 0.00 0.01 0.01 60 1003.3
20260504201545 62 202 4.3 13.0 0.00 0.01 0.01 60 1003.4
20260504201043 62 212 1.7 7.8 0.00 0.01 0.01 60 1003.3
20260504200539 62 22 2.6 4.3 0.00 0.01 0.01 63 1003.6
20260504200036 61 152 2.6 9.6 0.00 0.01 0.01 61 1003.5
20260504195532 61 350 0.0 11.3 0.00 0.01 0.01 62 1003.4
20260504195029 62 245 1.7 7.0 0.00 0.01 0.01 59 1003.2
20260504194525 62 324 0.0 5.2 0.00 0.01 0.01 63 1003.5
20260504194021 61 221 3.5 7.8 0.00 0.01 0.01 64 1003.3
20260504193518 61 133 9.6 9.6 0.00 0.01 0.01 62 1003.5
20260504193017 60 3 1.7 9.6 0.00 0.01 0.01 63 1003.4
20260504192514 60 7 5.2 9.6 0.00 0.01 0.01 63 1003.4
20260504192013 60 251 0.9 6.1 0.00 0.01 0.01 68 1003.0
20260504191510 58 224 2.6 7.0 0.00 0.01 0.01 70 1003.3
20260504191006 58 150 0.0 8.7 0.00 0.01 0.01 71 1003.4
20260504190502 58 200 2.6 4.3 0.00 0.01 0.01 75 1003.6
20260504185958 57 199 0.0 5.2 0.00 0.01 0.01 75 1003.7
20260504185455 57 235 0.9 5.2 0.00 0.01 0.01 75 1003.9
20260504184952 57 280 1.7 7.8 0.00 0.01 0.01 76 1003.9
20260504184447 57 232 1.7 3.5 0.00 0.01 0.01 76 1004.0
20260504183943 57 197 0.9 2.6 0.00 0.01 0.01 78 1003.9
20260504183440 56 92 0.0 6.1 0.00 0.01 0.01 79 1004.0
20260504182938 56 23 1.7 4.3 0.00 0.01 0.01 81 1004.3
20260504182435 56 1 1.7 3.5 0.02 0.01 0.01 82 1004.1
20260504181933 54 113 0.9 5.2 0.02 0.01 0.01 84 1004.4
20260504181429 53 101 0.9 4.3 0.02 0.00 0.00 84 1004.5
20260504180928 54 80 0.0 6.1 0.02 0.00 0.00 82 1004.5
20260504180426 54 147 1.7 4.3 0.00 0.00 0.00 80 1004.4
20260504175924 54 313 4.3 7.8 0.00 0.00 0.00 77 1004.3
20260504175421 56 322 0.0 6.1 0.00 0.00 0.00 79 1004.1
20260504174919 57 171 1.7 5.2 0.00 0.00 0.00 65 1003.8
20260504174416 57 127 2.6 2.6 0.00 0.00 0.00 69 1003.8
20260504173913 57 175 2.6 5.2 0.00 0.00 0.00 63 1003.4
20260504173409 58 330 1.7 3.5 0.00 0.00 0.00 61 1003.3
20260504172907 59 109 4.3 11.3 0.00 0.00 0.00 59 1003.0
20260504172403 59 262 1.7 7.0 0.00 0.00 0.00 57 1003.1
20260504171859 60 348 1.7 5.2 0.00 0.00 0.00 57 1002.9
20260504171357 60 109 4.3 11.3 0.00 0.00 0.00 58 1002.9
20260504170854 61 64 0.9 6.1 0.00 0.00 0.00 55 1003.1
20260504170350 60 225 2.6 7.0 0.00 0.00 0.00 57 1002.8
20260504160309 58 355 0.0 4.3 0.00 0.00 0.00 60 1002.9
20260504150734 57 323 0.9 6.1 0.00 0.00 0.00 57 1004.0
20260504150231 57 295 3.5 6.1 0.00 0.00 0.00 57 1004.1
20260504141200 55 17 0.0 7.8 0.00 0.00 0.00 54 1004.9
20260504140657 54 1 1.7 9.6 0.00 0.00 0.00 52 1004.9
20260504140152 54 218 0.0 11.3 0.00 0.00 0.00 59 1004.8
20260504130621 53 226 3.5 6.1 0.00 0.00 0.00 52 1005.5
20260504130118 53 325 0.9 7.8 0.00 0.00 0.00 56 1005.4
20260504110509 44 143 2.6 9.6 0.00 0.00 0.00 64 1006.0
20260504100425 38 158 4.3 6.1 0.00 0.00 0.00 76 1005.4
20260504081818 39 129 4.3 5.2 0.00 0.00 0.00 78 1004.9
20260504081315 39 126 2.6 6.1 0.00 0.00 0.00 76 1004.9
20260504080810 38 161 2.6 6.1 0.00 0.00 0.00 77 1004.7
20260504080308 39 158 5.2 5.2 0.00 0.00 0.00 76 1004.9
20260504070235 39 134 2.6 6.1 0.00 0.00 0.00 77 1004.8
20260504060155 38 135 2.6 4.3 0.00 0.00 0.00 78 1004.7
20260504050623 40 114 1.7 5.2 0.00 0.00 0.00 71 1004.3
20260504050121 41 157 3.5 8.7 0.00 0.00 0.00 69 1004.3
20260504045618 41 165 4.3 5.2 0.00 0.00 0.00 69 1004.2
20260504045112 41 151 1.7 4.3 0.00 0.00 0.00 68 1004.0
20260504044610 41 52 5.2 5.2 0.00 0.00 0.00 68 1004.0
20260504044107 41 5 2.6 7.0 0.00 0.00 0.00 68 1004.1
20260504043604 41 121 0.0 6.1 0.00 0.00 0.00 68 1004.2
20260504043101 41 99 3.5 3.5 0.00 0.00 0.00 67 1004.0
20260504042558 41 52 1.7 7.8 0.00 0.00 0.00 68 1004.0
20260504042055 41 31 1.7 4.3 0.00 0.00 0.00 67 1003.9
20260504041551 41 109 2.6 11.3 0.00 0.00 0.00 70 1004.0
20260504041047 41 6 3.5 4.3 0.00 0.00 0.00 69 1003.9
20260504040545 41 357 1.7 7.0 0.00 0.00 0.00 68 1003.9
20260504040041 41 99 4.3 6.1 0.00 0.60 0.60 67 1003.9
20260504035538 41 344 2.6 7.0 0.00 0.60 0.60 67 1003.9
20260504035034 41 180 3.5 7.8 0.00 0.60 0.60 68 1003.8
20260504034533 41 88 2.6 4.3 0.00 0.60 0.60 68 1003.7
20260504034029 41 256 1.7 3.5 0.00 0.60 0.60 69 1003.9
20260504033527 41 12 3.5 4.3 0.00 0.60 0.60 68 1003.7
20260504033024 41 118 4.3 7.0 0.00 0.60 0.60 67 1003.4
20260504032521 41 291 2.6 5.2 0.00 0.60 0.60 65 1003.6
20260504032018 41 25 4.3 6.1 0.00 0.60 0.60 66 1003.6
20260504031515 42 12 0.9 5.2 0.00 0.60 0.60 65 1003.5
20260504031011 42 51 2.6 6.1 0.00 0.60 0.60 65 1003.4
20260504030509 42 180 1.7 5.2 0.00 0.60 0.60 65 1003.3
20260504030004 42 166 2.6 5.2 0.00 0.60 0.60 65 1003.7
20260504025502 42 18 0.9 6.1 0.00 0.60 0.60 64 1003.5
20260504024958 42 2 0.0 4.3 0.00 0.60 0.60 64 1003.4
20260504024455 42 86 1.7 3.5 0.00 0.60 0.60 66 1003.3
20260504023953 42 99 1.7 6.1 0.00 0.60 0.60 64 1003.5
20260504023449 42 66 1.7 6.1 0.00 0.60 0.60 65 1003.2
20260504022944 42 47 1.7 5.2 0.00 0.60 0.60 64 1003.1
20260504022441 42 123 2.6 3.5 0.00 0.60 0.60 66 1003.1
20260504021938 42 110 1.7 6.1 0.00 0.60 0.60 64 1003.4
20260504021435 42 5 4.3 7.0 0.00 0.60 0.60 63 1003.2
20260504020932 42 44 5.2 6.1 0.00 0.60 0.60 65 1003.1
20260504020428 42 12 1.7 9.6 0.00 0.60 0.60 64 1003.3
20260504015925 42 24 4.3 13.9 0.00 0.60 0.60 63 1003.1
20260504015421 42 62 1.7 3.5 0.00 0.60 0.60 64 1003.1
20260504014917 42 74 1.7 5.2 0.00 0.60 0.60 63 1003.0
20260504014413 43 77 2.6 3.5 0.00 0.60 0.60 64 1003.3
20260504013910 43 179 0.0 6.1 0.00 0.60 0.60 62 1003.0
20260504013409 43 21 4.3 7.8 0.00 0.60 0.60 64 1002.9
20260504012905 43 50 2.6 6.1 0.00 0.60 0.60 63 1003.2
20260504012403 43 46 2.6 9.6 0.00 0.60 0.60 62 1002.8
20260504011900 43 45 2.6 5.2 0.00 0.60 0.60 64 1002.6